EW7574 Weather Reports


Display with metric or nautical units.
time (UTC)temp
F
wind
direction
speed
MPH
gust
MPH
rain 1hr
in
rain 24hr
in
rain mn
in
humidity
%
barometer
mb
20260507213054 58 234 1.0 9.0 0.00 0.68 0.35 72 1004.2
20260507211615 58 217 3.0 6.0 0.00 0.68 0.35 71 1003.9
20260507210054 58 257 1.0 5.0 0.00 0.68 0.35 71 1003.9
20260507204600 58 219 5.0 9.0 0.00 0.68 0.35 70 1003.7
20260507203051 60 171 5.0 9.0 0.00 0.68 0.35 67 1003.6
20260507201606 61 200 4.0 9.0 0.00 0.68 0.35 69 1003.5
20260507200100 62 115 1.0 8.0 0.00 0.68 0.35 69 1003.7
20260507194553 60 119 2.0 11.0 0.00 0.68 0.35 69 1004.1
20260507193046 61 180 2.0 7.0 0.00 0.68 0.35 68 1004.3
20260507191550 59 134 3.0 8.0 0.00 0.68 0.35 67 1004.5
20260507190045 59 125 2.0 10.0 0.00 0.68 0.35 69 1004.8
20260507184544 62 360 3.0 6.0 0.00 0.68 0.35 52 1004.8
20260507183043 62 67 4.0 8.0 0.00 0.68 0.35 52 1004.9
20260507181540 61 13 2.0 9.0 0.00 0.68 0.35 55 1005.0
20260507180045 59 15 3.0 8.0 0.00 0.68 0.35 59 1005.4
20260507174540 59 319 2.0 7.0 0.00 0.68 0.35 59 1005.6
20260507173036 56 347 3.0 10.0 0.00 0.68 0.35 65 1005.6
20260507171534 56 279 5.0 10.0 0.00 0.68 0.35 68 1005.7
20260507170034 56 324 5.0 12.0 0.00 0.68 0.35 68 1006.0
20260507164534 56 300 6.0 11.0 0.00 0.68 0.35 70 1005.9
20260507163031 55 23 4.0 11.0 0.00 0.68 0.35 71 1005.9
20260507161530 54 299 5.0 13.0 0.00 0.68 0.35 74 1006.1
20260507160034 54 297 5.0 13.0 0.00 0.68 0.35 72 1006.2
20260507154530 54 281 5.0 14.0 0.00 0.68 0.35 75 1006.4
20260507153032 53 340 7.0 11.0 0.00 0.68 0.35 77 1006.5
20260507151525 52 338 4.0 12.0 0.00 0.68 0.35 80 1006.2
20260507150023 50 301 4.0 12.0 0.00 0.68 0.35 82 1006.4
20260507144521 50 348 4.0 12.0 0.00 0.68 0.35 85 1006.4
20260507143023 50 343 3.0 5.0 0.00 0.68 0.35 87 1006.5
20260507141517 49 355 3.0 14.0 0.00 0.68 0.35 86 1006.4
20260507140024 49 313 5.0 13.0 0.00 0.68 0.35 86 1006.2
20260507134514 49 325 7.0 13.0 0.01 0.68 0.35 86 1006.2
20260507133014 48 323 8.0 12.0 0.01 0.68 0.35 87 1006.0
20260507131511 47 319 4.0 11.0 0.01 0.68 0.35 88 1006.7
20260507130010 48 290 4.0 11.0 0.02 0.68 0.35 88 1006.6
20260507124607 48 322 3.0 11.0 0.02 0.67 0.34 88 1006.5
20260507123006 48 15 6.0 12.0 0.02 0.67 0.34 88 1006.4
20260507121505 48 327 5.0 15.0 0.02 0.67 0.34 88 1006.3
20260507120003 49 355 8.0 19.0 0.02 0.66 0.33 89 1006.6
20260507114603 49 355 8.0 15.0 0.01 0.65 0.32 89 1006.7
20260507113059 49 5 8.0 14.0 0.02 0.65 0.32 89 1005.8
20260507111557 49 355 10.0 22.0 0.03 0.65 0.32 90 1005.9
20260507110057 49 332 9.0 21.0 0.04 0.64 0.31 90 1006.0
20260507104554 49 306 10.0 19.0 0.21 0.64 0.31 91 1005.8
20260507103049 49 322 9.0 17.0 0.22 0.63 0.30 91 1005.6
20260507101601 50 335 10.0 17.0 0.22 0.62 0.28 91 1005.4
20260507100045 50 294 12.0 17.0 0.26 0.60 0.27 91 1004.9
20260507094553 51 336 9.0 17.0 0.09 0.43 0.10 91 1005.4
20260507093037 53 5 10.0 17.0 0.06 0.40 0.07 91 1004.8
20260507091551 54 301 4.0 16.0 0.07 0.40 0.07 92 1005.0
20260507090033 54 300 4.0 8.0 0.01 0.34 0.01 92 1005.5
20260507084530 54 245 2.0 7.0 0.01 0.34 0.01 91 1004.9
20260507083030 54 228 2.0 6.0 0.01 0.34 0.01 91 1004.1
20260507081540 54 189 1.0 5.0 0.00 0.33 0.00 91 1004.0
20260507080025 55 211 1.0 3.0 0.00 0.33 0.00 91 1004.2
20260507074527 55 196 2.0 4.0 0.00 0.33 0.00 91 1004.3
20260507073022 55 220 2.0 6.0 0.00 0.33 0.00 91 1004.5
20260507071521 55 234 3.0 6.0 0.00 0.33 0.00 91 1005.0
20260507070020 55 263 1.0 5.0 0.00 0.33 0.00 91 1004.5
20260507064520 55 263 1.0 8.0 0.00 0.33 0.00 91 1004.5
20260507063018 55 211 3.0 9.0 0.00 0.33 0.00 91 1004.7
20260507061529 55 292 3.0 12.0 0.00 0.33 0.00 91 1004.6
20260507060026 56 234 5.0 12.0 0.00 0.33 0.00 91 1004.7
20260507054513 56 255 3.0 11.0 0.00 0.33 0.00 91 1004.9
20260507053111 56 213 4.0 12.0 0.00 0.33 0.00 91 1005.3
20260507051510 56 219 5.0 15.0 0.00 0.33 0.00 91 1005.4
20260507050016 56 215 5.0 11.0 0.00 0.33 0.00 91 1005.4
20260507044511 56 197 4.0 11.0 0.00 0.33 0.00 91 1005.5
20260507043004 56 243 5.0 14.0 0.00 0.33 0.00 91 1005.8
20260507041502 56 318 6.0 12.0 0.00 0.33 0.00 91 1006.0
20260507040100 56 243 7.0 19.0 0.00 0.33 0.00 91 1005.7
20260507034604 56 267 7.0 21.0 0.00 0.33 0.33 91 1006.0
20260507033102 56 222 9.0 17.0 0.00 0.33 0.33 91 1005.6
20260507031558 56 221 5.0 17.0 0.00 0.33 0.33 91 1005.6
20260507030106 56 213 7.0 15.0 0.00 0.33 0.33 91 1005.8
20260507024558 56 231 6.0 21.0 0.00 0.33 0.33 91 1006.3
20260507023052 56 229 8.0 18.0 0.00 0.33 0.33 91 1006.4
20260507021607 56 178 7.0 20.0 0.00 0.33 0.33 91 1006.7
20260507020053 56 186 7.0 21.0 0.01 0.33 0.33 90 1006.7
20260507014607 57 190 7.0 17.0 0.05 0.33 0.33 90 1007.1
20260507013049 57 227 7.0 17.0 0.11 0.33 0.33 90 1007.0
20260507011544 57 211 7.0 21.0 0.16 0.33 0.33 90 1007.1
20260507010050 56 229 7.0 15.0 0.17 0.32 0.32 90 1007.2
20260507004543 57 230 6.0 19.0 0.13 0.27 0.27 90 1007.2
20260507003041 56 198 7.0 25.0 0.12 0.22 0.22 89 1007.1
20260507001541 56 184 10.0 22.0 0.13 0.17 0.17 89 1007.1
20260507000043 57 197 8.0 22.0 0.15 0.15 0.15 89 1007.1
20260506234536 57 205 8.0 21.0 0.14 0.14 0.14 88 1007.3
20260506233036 57 180 8.0 22.0 0.10 0.10 0.10 87 1007.5
20260506231535 58 189 10.0 22.0 0.04 0.04 0.04 85 1007.6
20260506230036 60 226 10.0 23.0 0.00 0.00 0.00 81 1007.5
20260506224536 60 196 9.0 22.0 0.00 0.00 0.00 80 1007.6
20260506223034 60 206 9.0 21.0 0.00 0.00 0.00 79 1007.7
20260506221532 60 226 10.0 25.0 0.00 0.00 0.00 79 1007.9
20260506220035 60 203 10.0 18.0 0.00 0.00 0.00 78 1008.0
20260506214529 61 229 7.0 23.0 0.00 0.00 0.00 78 1007.9